This demonstration page uses our WeatherBlox Daily Observations layout. Learn more.

Left ArrowRight Arrow

39.95238, -75.16362

Hourly Observations for January 10, 2022

Temp ( °F °C ) Dew Point ( °F °C ) Humidity (%) Winds ( mph kmh ) Pressure ( in mb ) Visibility ( mi km ) Precip ( " mm )
12:54 am 00:54 Cloudy 41 5 28 -2.2 60 60 NW 18 30 30.06 1018 10 16 0.00 0.00
1:54 am 01:54 Partly Cloudy 40 4.4 24 -4.4 53 53 WNW 20 31 30.07 1018 10 16 0.00 0.00
2:54 am 02:54 Mostly Cloudy 38 3.3 23 -5 55 55 W 10 17 30.09 1019 10 16 0.00 0.00
3:54 am 03:54 Partly Cloudy 37 2.8 17 -8.3 44 44 NW 17 28 30.10 1019 10 16 0.00 0.00
4:54 am 04:54 Mostly Cloudy 35 1.7 15 -9.4 44 44 NW 17 28 30.13 1020 10 16 0.00 0.00
5:54 am 05:54 Mostly Cloudy 33 0.6 15 -9.4 47 47 NNW 21 33 30.14 1021 10 16 0.00 0.00
6:54 am 06:54 Mostly Cloudy 32 0 9 -12.8 38 38 NW 24 39 30.16 1022 10 16 0.00 0.00
7:54 am 07:54 Partly Cloudy 30 -1.1 9 -12.8 41 41 NW 13 20 30.20 1023 10 16 0.00 0.00
8:54 am 08:54 Mostly Sunny 31 -0.6 9 -12.8 40 40 NW 21 33 30.22 1023 10 16 0.00 0.00
9:54 am 09:54 Mostly Sunny 32 0 9 -12.8 38 38 NW 15 24 30.23 1024 10 16 0.00 0.00
10:54 am 10:54 Partly Cloudy 32 0 10 -12.2 40 40 WNW 18 30 30.23 1024 10 16 0.00 0.00
11:54 am 11:54 Mostly Cloudy 31 -0.6 8 -13.3 38 38 W 21 33 30.21 1023 10 16 0.00 0.00
12:54 pm 12:54 Partly Cloudy 31 -0.6 8 -13.3 38 38 W 17 28 30.19 1022 10 16 0.00 0.00
1:54 pm 13:54 Partly Cloudy 31 -0.6 6 -14.4 35 35 WNW 16 26 30.19 1022 10 16 0.00 0.00
2:54 pm 14:54 Partly Cloudy 32 0 7 -13.9 35 35 W 17 28 30.18 1022 10 16 0.00 0.00
3:54 pm 15:54 Partly Cloudy 31 -0.6 8 -13.3 38 38 WNW 14 22 30.19 1022 10 16 0.00 0.00
4:54 pm 16:54 Partly Cloudy 31 -0.6 7 -13.9 36 36 WNW 12 19 30.18 1022 10 16 0.00 0.00
5:54 pm 17:54 Partly Cloudy 29 -1.7 9 -12.8 43 43 W 7 11 30.19 1023 10 16 0.00 0.00
6:54 pm 18:54 Partly Cloudy 29 -1.7 9 -12.8 43 43 W 9 15 30.21 1023 10 16 0.00 0.00
7:54 pm 19:54 Partly Cloudy 30 -1.1 9 -12.8 41 41 W 8 13 30.21 1023 10 16 0.00 0.00
8:54 pm 20:54 Partly Cloudy 29 -1.7 10 -12.2 45 45 WNW 10 17 30.21 1023 10 16 0.00 0.00
9:54 pm 21:54 Mostly Clear 28 -2.2 8 -13.3 43 43 NW 14 22 30.24 1024 10 16 0.00 0.00
10:54 pm 22:54 Mostly Clear 28 -2.2 4 -15.6 35 35 WNW 15 24 30.25 1025 10 16 0.00 0.00
11:54 pm 23:54 Mostly Clear 27 -2.8 6 -14.4 41 41 W 16 26 30.27 1025 10 16 0.00 0.00

Powered by AerisWeather